DW9593 Weather Reports


time (UTC)temp
C
wind
direction
speed
KPH
gust
KPH
rain 1hr
cm
rain 24hr
cm
rain mn
cm
humidity
%
barometer
mb
20240614131517 25 0.0 0.0 0.00 0.00 0.00 21 1013.1
20240614130517 25 0.0 0.0 0.00 0.00 0.00 22 1012.9
20240614125517 24 360 1.6 11.3 0.00 0.00 0.00 22 1012.8
20240614124517 23 0 1.6 9.7 0.00 0.00 0.00 22 1012.6
20240614123516 23 360 1.6 8.0 0.00 0.00 0.00 22 1012.5
20240614122602 23 0.0 3.2 0.00 0.00 0.00 23 1012.5
20240614121517 23 360 0.0 8.0 0.00 0.00 0.00 23 1012.5
20240614120516 23 360 0.0 1.6 0.00 0.00 0.00 22 1012.6
20240614115536 23 0.0 0.0 0.00 0.00 0.00 22 1012.6
20240614114516 23 0.0 0.0 0.00 0.00 0.00 21 1012.6
20240614113516 23 0.0 0.0 0.00 0.00 0.00 21 1012.5
20240614112516 23 360 0.0 1.6 0.00 0.00 0.00 22 1012.4
20240614111517 23 0.0 0.0 0.00 0.00 0.00 22 1012.3
20240614110517 23 0.0 0.0 0.00 0.00 0.00 21 1012.3
20240614105516 24 0.0 0.0 0.00 0.00 0.00 21 1012.1
20240614104516 25 0.0 0.0 0.00 0.00 0.00 21 1012.0
20240614103516 25 0.0 0.0 0.00 0.00 0.00 21 1012.0
20240614102516 26 0.0 0.0 0.00 0.00 0.00 20 1012.2
20240614101516 26 0.0 0.0 0.00 0.00 0.00 19 1012.3
20240614100516 26 0.0 0.0 0.00 0.00 0.00 19 1012.2
20240614095517 26 0.0 0.0 0.00 0.00 0.00 19 1012.1
20240614094518 26 0.0 1.6 0.00 0.00 0.00 19 1012.0
20240614093516 27 0.0 0.0 0.00 0.00 0.00 18 1012.3
20240614092516 27 0.0 0.0 0.00 0.00 0.00 18 1012.4
20240614091517 27 0.0 0.0 0.00 0.00 0.00 18 1012.6
20240614090516 28 0.0 0.0 0.00 0.00 0.00 17 1012.8
20240614085516 28 0.0 0.0 0.00 0.00 0.00 17 1013.0
20240614084517 28 0.0 0.0 0.00 0.00 0.00 16 1013.0
20240614083516 28 0.0 0.0 0.00 0.00 0.00 16 1013.2
20240614082517 29 0.0 3.2 0.00 0.00 0.00 16 1013.1
20240614081517 29 360 0.0 6.4 0.00 0.00 0.00 15 1013.1
20240614080516 29 360 0.0 9.7 0.00 0.00 0.00 15 1013.1
20240614075521 29 360 1.6 9.7 0.00 0.00 0.00 15 1013.3
20240614074537 29 360 3.2 11.3 0.00 0.00 0.00 15 1013.3
20240614073556 29 360 1.6 9.7 0.00 0.00 0.00 15 1013.4
20240614072517 29 360 0.0 8.0 0.00 0.00 0.00 15 1013.5
20240614071516 30 360 1.6 12.9 0.00 0.00 0.00 15 1013.5
20240614070516 30 360 1.6 8.0 0.00 0.00 0.00 15 1013.6
20240614065515 30 360 1.6 9.7 0.00 0.00 0.00 15 1013.6
20240614064516 30 360 3.2 9.7 0.00 0.00 0.00 15 1013.7
20240614063515 30 360 1.6 8.0 0.00 0.00 0.00 15 1013.7
20240614062515 30 360 1.6 8.0 0.00 0.00 0.00 15 1013.8
20240614061515 31 360 0.0 6.4 0.00 0.00 0.00 15 1013.8
20240614060516 31 0.0 1.6 0.00 0.00 0.00 14 1013.6
20240614055515 31 360 0.0 11.3 0.00 0.00 0.00 14 1013.5
20240614054516 31 360 6.4 12.9 0.00 0.00 0.00 14 1013.5
20240614053515 31 360 4.8 12.9 0.00 0.00 0.00 13 1013.5
20240614052515 31 360 4.8 14.5 0.00 0.00 0.00 13 1013.5
20240614051515 31 360 6.4 12.9 0.00 0.00 0.00 13 1013.5
20240614050515 31 360 6.4 11.3 0.00 0.00 0.00 13 1013.3
20240614045515 32 360 4.8 14.5 0.00 0.00 0.00 13 1013.3
20240614044516 32 360 6.4 11.3 0.00 0.00 0.00 13 1013.5
20240614043515 32 360 3.2 8.0 0.00 0.00 0.00 13 1013.4
20240614042515 32 360 4.8 12.9 0.00 0.00 0.00 13 1013.6
20240614041515 32 360 1.6 6.4 0.00 0.00 0.00 13 1013.3
20240614040515 32 0.0 0.0 0.00 0.00 0.00 13 1013.0
20240614035516 32 360 0.0 1.6 0.00 0.00 0.00 13 1013.0
20240614034516 32 0.0 0.0 0.00 0.00 0.00 13 1013.0
20240614033535 33 0.0 0.0 0.00 0.00 0.00 13 1012.9
20240614032515 33 360 0.0 1.6 0.00 0.00 0.00 12 1013.0
20240614031556 34 0.0 3.2 0.00 0.00 0.00 11 1012.9
20240614030515 35 0.0 0.0 0.00 0.00 0.00 11 1012.7
20240614025515 35 0.0 0.0 0.00 0.00 0.00 11 1012.7
20240614024515 35 360 0.0 1.6 0.00 0.00 0.00 11 1012.7
20240614023515 35 360 0.0 4.8 0.00 0.00 0.00 10 1012.8
20240614022515 35 360 1.6 9.7 0.00 0.00 0.00 10 1012.7
20240614021515 36 360 3.2 11.3 0.00 0.00 0.00 10 1012.7
20240614020515 36 360 8.0 14.5 0.00 0.00 0.00 10 1012.5
20240614015515 36 360 6.4 12.9 0.00 0.00 0.00 9 1012.5
20240614014516 36 360 3.2 14.5 0.00 0.00 0.00 9 1012.6
20240614013515 37 360 6.4 14.5 0.00 0.00 0.00 9 1012.6
20240614012535 37 360 6.4 19.3 0.00 0.00 0.00 9 1012.4
20240614011515 37 360 8.0 17.7 0.00 0.00 0.00 9 1012.1
20240614010515 37 360 9.7 17.7 0.00 0.00 0.00 9 1012.3
20240614005515 37 360 8.0 22.5 0.00 0.00 0.00 9 1012.2
20240614004515 37 360 9.7 19.3 0.00 0.00 0.00 9 1012.2
20240614003515 37 360 9.7 22.5 0.00 0.00 0.00 8 1012.1
20240614002515 37 360 8.0 17.7 0.00 0.00 0.00 8 1012.4
20240614001515 38 360 8.0 22.5 0.00 0.00 0.00 8 1012.3
20240614000515 38 360 8.0 19.3 0.00 0.00 0.00 8 1012.5
20240613235515 38 360 6.4 14.5 0.00 0.00 0.00 8 1012.8
20240613234515 38 360 4.8 14.5 0.00 0.00 0.00 8 1012.8
20240613233518 38 360 3.2 14.5 0.00 0.00 0.00 8 1012.8
20240613232515 38 360 4.8 12.9 0.00 0.00 0.00 8 1012.7
20240613231515 38 360 3.2 11.3 0.00 0.00 0.00 9 1012.9
20240613230535 37 360 4.8 12.9 0.00 0.00 0.00 9 1012.9
20240613225515 37 360 3.2 9.7 0.00 0.00 0.00 9 1013.1
20240613224515 36 360 0.0 3.2 0.00 0.00 0.00 10 1013.1
20240613223515 36 360 0.0 3.2 0.00 0.00 0.00 10 1013.2
20240613222515 36 0.0 0.0 0.00 0.00 0.00 10 1013.2
20240613221515 35 360 0.0 9.7 0.00 0.00 0.00 10 1013.5
20240613220516 35 360 4.8 9.7 0.00 0.00 0.00 10 1013.7
20240613215520 35 360 1.6 8.0 0.00 0.00 0.00 10 1013.8
20240613214515 35 360 0.0 4.8 0.00 0.00 0.00 10 1014.0
20240613213540 35 360 1.6 9.7 0.00 0.00 0.00 9 1013.8
20240613212515 36 360 3.2 11.3 0.00 0.00 0.00 9 1014.1
20240613211515 36 360 6.4 12.9 0.00 0.00 0.00 9 1014.2
20240613210515 36 360 4.8 16.1 0.00 0.00 0.00 9 1014.6
20240613205515 36 360 8.0 16.1 0.00 0.00 0.00 9 1014.7
20240613204515 36 360 6.4 16.1 0.00 0.00 0.00 9 1014.9
20240613203535 36 360 8.0 20.9 0.00 0.00 0.00 9 1015.0
20240613202515 36 360 6.4 20.9 0.00 0.00 0.00 9 1014.8
20240613201515 36 360 9.7 19.3 0.00 0.00 0.00 9 1014.8
20240613200515 36 359 8.0 20.9 0.00 0.00 0.00 9 1015.0
20240613195515 36 359 8.0 16.1 0.00 0.00 0.00 9 1015.0
20240613194515 36 360 8.0 17.7 0.00 0.00 0.00 9 1015.2
20240613193520 36 360 4.8 12.9 0.00 0.00 0.00 10 1015.2
20240613192515 36 360 3.2 11.3 0.00 0.00 0.00 9 1015.2
20240613191535 36 360 4.8 12.9 0.00 0.00 0.00 10 1015.1
20240613190515 36 360 6.4 12.9 0.00 0.00 0.00 9 1015.5
20240613185515 36 358 4.8 12.9 0.00 0.00 0.00 9 1015.7
20240613184515 36 360 4.8 14.5 0.00 0.00 0.00 9 1015.8
20240613183515 36 360 6.4 14.5 0.00 0.00 0.00 9 1015.8
20240613182520 37 360 8.0 16.1 0.00 0.00 0.00 9 1015.9
20240613181515 36 360 4.8 12.9 0.00 0.00 0.00 10 1015.9
20240613180516 36 360 4.8 11.3 0.00 0.00 0.00 9 1015.7
20240613175515 36 360 4.8 11.3 0.00 0.00 0.00 10 1015.7
20240613174515 36 360 4.8 11.3 0.00 0.00 0.00 10 1015.6
20240613173515 35 360 4.8 12.9 0.00 0.00 0.00 10 1015.8
20240613172515 35 360 1.6 8.0 0.00 0.00 0.00 10 1015.8
20240613171517 35 360 0.0 6.4 0.00 0.00 0.00 10 1015.8
20240613170517 35 360 1.6 11.3 0.00 0.00 0.00 10 1015.6
20240613165517 35 360 8.0 16.1 0.00 0.00 0.00 10 1015.9
20240613164517 34 360 6.4 16.1 0.00 0.00 0.00 11 1015.8
20240613163517 34 360 0.0 4.8 0.00 0.00 0.00 12 1015.9
20240613162517 33 360 3.2 14.5 0.00 0.00 0.00 12 1015.8
20240613161517 33 360 0.0 6.4 0.00 0.00 0.00 13 1015.8
20240613160538 32 360 4.8 9.7 0.00 0.00 0.00 13 1016.0
20240613155517 32 0 1.6 6.4 0.00 0.00 0.00 11 1016.0
20240613154517 31 360 1.6 8.0 0.00 0.00 0.00 12 1015.5
20240613153537 31 0 1.6 8.0 0.00 0.00 0.00 13 1015.7
20240613152517 31 360 0.0 6.4 0.00 0.00 0.00 13 1015.9
20240613151517 30 360 0.0 3.2 0.00 0.00 0.00 14 1016.1
20240613150517 30 360 0.0 3.2 0.00 0.00 0.00 15 1015.9
20240613145517 30 0.0 0.0 0.00 0.00 0.00 17 1016.0
20240613144517 29 360 0.0 1.6 0.00 0.00 0.00 15 1015.9
20240613143517 29 0.0 3.2 0.00 0.00 0.00 15 1015.9
20240613142517 28 360 0.0 4.8 0.00 0.00 0.00 16 1015.8
20240613141517 28 0.0 0.0 0.00 0.00 0.00 17 1015.9
20240613140517 27 360 0.0 1.6 0.00 0.00 0.00 18 1015.8
20240613135517 26 360 0.0 3.2 0.00 0.00 0.00 19 1015.8
20240613134537 26 360 0.0 6.4 0.00 0.00 0.00 20 1015.6
20240613133517 26 0.0 0.0 0.00 0.00 0.00 20 1015.4
20240613132517 25 0.0 0.0 0.00 0.00 0.00 19 1015.4